Temp
62 62 62 61 61 62 63 62 62 62 62 61 61 61 60 61 58 55 55 57 57 60 64 60 62 64 63 62 63 63 62 61 61 61 61 60 60 57 57 57 59 56 55 54 53 54 57 58 58 59 61 62 63 62 60 59 58 58 62 63 62 59 57 57 57 60 62 61 58 56 56 56 56 56
63 62 62 62 61 62 62 62 62 62 62 61 61 61 60 61 60 58 56 56 60 59 63 63 60 63 63 63 62 63 62 59 61 61 61 60 59 56 55 55 56 55 53 52 51 52 56 57 58 60 61 62 62 60 59 58 58 62 64 64 62 60 58 59 60 61 59 57 56 55 56 55 56 57
62 62 61 61 61 61 62 62 62 62 62 61 61 61 61 60 60 60 59 56 58 62 59 62 63 62 62 63 62 63 62 60 61 61 60 60 58 56 56 55 55 54 53 51 52 56 58 55 57 59 61 62 61 60 60 61 61 64 63 59 58 59 59 59 60 61 60 58 57 56 56 56 56 57
62 62 61 61 61 61 61 62 62 62 62 62 61 61 60 60 59 59 58 57 56 60 62 60 61 63 61 62 61 62 61 60 59 61 60 59 56 57 57 54 54 53 52 52 55 60 60 57 58 60 61 61 61 61 62 62 63 61 57 55 57 57 57 58 59 61 60 59 58 57 56 57 56 56
62 62 62 62 62 62 61 61 61 61 61 62 61 61 60 60 60 59 58 56 54 56 59 60 60 62 62 61 63 61 60 59 60 60 60 58 57 57 57 56 52 52 51 51 53 55 55 57 61 60 60 61 61 59 59 58 56 57 56 54 54 54 56 56 56 58 59 58 58 56 57 56 56 55
62 61 61 62 62 62 62 62 61 61 61 61 61 60 60 60 59 60 58 56 56 56 56 58 59 59 62 60 63 60 59 59 59 59 58 58 58 57 57 56 55 51 52 51 52 53 53 54 57 56 55 55 55 55 54 54 54 55 52 50 52 55 57 57 55 55 58 58 57 56 56 55 54 55
62 61 61 61 62 62 61 61 62 61 61 61 61 60 60 60 59 60 60 58 56 56 55 57 58 58 60 61 60 61 61 60 60 59 58 57 58 59 57 56 56 51 51 51 52 53 53 54 54 54 54 53 52 52 52 52 52 52 50 49 52 54 54 54 53 53 58 58 57 56 56 54 54 55
61 61 61 61 61 61 61 61 61 61 61 60 60 60 60 60 59 60 60 59 57 56 55 57 58 59 59 60 61 62 61 60 60 59 59 60 59 58 57 57 57 53 51 51 52 53 53 53 53 53 53 52 51 51 52 51 51 50 50 50 51 51 51 51 50 50 53 57 58 57 55 54 55 56
61 61 61 61 61 60 60 60 60 60 60 60 60 60 60 60 59 59 59 59 59 57 56 56 58 59 59 60 61 61 59 59 59 59 58 59 59 58 58 59 58 52 51 52 52 52 52 52 52 52 52 51 51 51 51 51 50 50 50 50 50 50 49 49 48 48 50 51 53 58 58 54 56 58
62 62 61 61 61 60 59 59 59 60 60 60 60 60 59 60 59 59 59 59 59 58 57 57 55 57 57 58 58 60 60 58 57 57 58 60 59 57 56 58 57 56 56 55 54 51 51 52 52 51 51 51 50 50 50 50 50 50 49 49 49 49 48 48 48 47 47 48 48 49 52 54 55 58
60 61 61 61 61 60 60 59 59 59 60 60 59 59 59 60 59 58 58 58 58 57 56 56 56 56 57 58 57 59 61 60 58 56 55 55 57 57 57 55 56 56 54 52 52 52 52 52 51 50 51 51 50 50 49 49 49 49 48 48 48 48 48 48 48 47 47 46 46 46 46 49 55 58
60 60 61 60 61 61 60 60 59 60 59 59 59 59 60 59 59 58 58 57 57 56 56 56 55 56 55 55 57 59 59 57 56 58 56 54 54 55 56 57 54 54 54 52 52 52 52 50 50 50 49 50 49 49 49 50 50 49 47 47 47 47 47 47 47 47 47 46 46 45 44 44 45 51
60 60 60 60 60 61 62 58 58 59 59 59 58 58 59 59 58 58 58 57 57 56 55 54 54 54 54 54 55 55 55 55 55 56 56 55 55 55 54 55 56 55 54 53 52 52 52 51 51 51 50 49 49 49 50 50 50 48 46 46 46 46 46 46 46 46 46 46 46 45 44 44 44 44
59 59 59 61 62 60 59 56 53 53 54 57 59 58 59 59 58 58 57 57 57 56 55 54 53 53 53 53 54 55 57 58 57 54 54 53 52 52 52 53 52 54 55 52 51 51 53 52 51 52 51 51 51 50 49 49 49 47 45 46 46 46 45 45 45 45 46 45 46 45 44 44 44 42
57 58 58 57 60 59 58 56 51 48 50 51 52 53 55 57 59 58 57 57 57 56 56 55 54 54 53 53 54 55 56 57 56 54 53 51 50 51 50 49 48 52 55 52 51 50 53 53 51 51 51 51 50 50 49 47 48 47 46 45 45 45 45 45 45 45 45 45 45 44 44 44 44 43
54 56 56 56 57 58 59 57 55 51 49 49 50 50 49 47 47 51 57 57 56 56 56 54 54 55 53 53 53 53 55 55 54 54 53 51 51 49 50 48 47 49 55 52 50 48 50 53 51 49 50 51 50 50 47 46 46 45 46 45 45 45 45 44 44 44 44 44 44 43 44 44 43 41
50 53 56 55 55 56 58 57 55 54 50 45 45 45 46 46 44 41 42 48 58 58 56 56 54 54 53 53 52 54 55 57 55 53 52 52 52 52 52 50 45 48 54 52 49 47 47 48 48 46 46 47 47 46 46 46 45 45 45 45 45 44 44 44 44 44 43 43 43 43 43 42 42 42
49 50 52 53 53 53 54 55 56 55 54 54 53 51 49 48 46 45 44 45 50 53 57 55 54 53 54 53 54 55 54 55 55 54 54 53 52 52 53 51 50 51 56 52 47 44 45 47 46 44 45 46 45 44 45 45 45 45 45 44 44 44 44 44 44 43 43 43 43 43 43 42 42 41
47 48 50 50 51 51 51 50 53 54 52 51 49 48 47 47 46 45 44 45 51 54 54 53 52 51 52 53 54 55 54 58 60 59 58 56 55 52 51 50 50 51 52 51 49 44 44 47 44 43 43 44 43 44 45 45 45 45 45 44 44 44 44 43 43 43 43 43 42 42 42 41 41 41
47 48 47 48 48 49 48 46 44 49 52 51 49 49 49 48 48 46 45 43 43 44 46 46 46 44 44 43 46 50 54 56 56 56 55 55 54 53 51 47 46 48 48 48 47 44 44 45 43 42 43 44 44 45 45 45 46 45 45 44 44 44 44 43 43 43 43 43 42 42 42 41 41 41
46 47 48 47 46 46 46 43 44 45 50 51 50 49 49 49 48 48 49 46 43 43 42 42 42 42 43 42 42 42 42 49 55 55 54 52 53 52 49 47 47 47 48 46 48 45 43 44 43 42 42 43 43 43 44 45 45 45 45 44 44 44 44 44 44 43 43 43 43 42 42 42 42 42
45 46 47 48 46 45 44 42 42 46 51 51 50 49 48 47 46 47 49 49 49 46 45 44 44 43 43 44 44 43 44 43 48 55 54 53 54 53 52 48 47 46 47 47 51 47 43 43 44 42 43 43 43 43 43 44 45 45 44 44 44 44 44 44 44 44 44 43 43 43 43 42 42 42
44 44 44 44 43 44 43 41 43 44 49 50 49 48 47 46 45 46 47 47 47 48 47 47 48 46 47 48 47 47 44 45 47 48 51 52 53 51 49 48 47 46 46 46 50 46 43 43 44 44 42 40 43 44 44 44 44 44 44 43 43 44 44 44 44 44 44 44 43 43 42 42 42 41
43 43 43 43 40 40 40 40 41 42 44 48 48 48 47 46 45 47 47 47 47 47 47 46 47 47 47 47 47 47 47 47 47 45 47 48 51 50 49 48 47 46 45 46 48 46 45 45 43 45 44 40 38 42 43 43 44 43 43 43 42 43 44 43 43 43 43 43 43 42 42 42 42 41
42 42 42 42 41 40 40 40 40 41 41 43 46 45 45 45 46 47 47 47 47 47 46 46 46 46 46 46 46 45 45 45 46 46 45 46 47 48 47 46 44 43 44 45 46 48 44 44 43 44 44 44 42 41 42 42 43 43 43 43 42 42 42 42 42 41 42 42 42 42 42 42 42 41
42 42 41 41 41 40 40 40 41 41 41 42 44 41 40 41 42 46 47 47 46 46 45 45 45 45 44 44 44 45 45 45 46 45 46 45 46 45 46 46 45 43 44 46 45 48 45 44 44 43 43 42 42 42 40 41 42 43 43 42 42 42 42 42 41 40 40 40 40 40 41 42 43 43
41 42 42 42 42 40 40 40 40 40 41 42 41 40 41 41 42 44 45 44 45 45 44 44 44 44 44 44 44 44 44 45 45 45 45 46 46 46 46 46 46 45 46 47 50 49 47 45 46 44 43 43 41 41 41 40 41 42 42 42 41 41 41 41 41 40 40 40 41 42 41 40 41 41
40 40 41 41 40 40 40 40 40 40 40 40 39 40 41 42 42 44 44 43 43 43 43 43 43 43 44 44 44 44 44 45 45 45 46 46 46 46 45 46 45 46 46 47 48 49 48 46 45 46 45 43 41 40 39 41 42 42 41 41 40 40 41 41 40 41 40 40 40 40 40 39 40 41
41 40 40 40 40 40 41 40 41 41 40 40 40 40 41 44 43 43 43 43 43 42 42 42 42 42 43 43 43 44 45 45 46 44 45 46 45 46 46 46 45 45 46 46 47 47 48 47 45 45 45 44 43 42 42 41 41 41 41 41 40 40 40 41 41 40 40 39 40 40 41 40 38 39
40 40 40 40 41 41 41 43 42 41 40 40 40 41 42 43 42 42 42 42 42 41 41 41 42 42 43 43 44 44 45 44 43 44 44 44 44 45 45 45 43 44 44 44 44 46 47 47 46 46 44 43 44 42 42 41 39 39 40 40 39 39 38 38 39 40 40 39 39 40 39 39 39 39
41 41 41 40 40 40 40 40 40 41 40 40 40 40 40 40 40 41 41 40 40 40 40 40 41 41 42 43 43 42 42 42 42 42 43 43 42 42 43 42 41 41 42 43 43 43 45 46 46 46 43 42 42 42 42 41 39 38 38 39 40 38 39 38 39 38 39 39 38 38 39 38 38 38
40 40 40 40 40 40 40 40 40 39 39 38 37 38 38 38 39 40 42 41 40 40 40 40 40 41 41 40 40 41 41 41 41 41 42 42 42 42 42 39 39 40 40 41 42 43 42 44 44 43 43 43 41 39 39 39 38 38 37 38 38 37 38 38 38 38 39 40 39 37 36 37 37 37
39 38 37 36 36 36 35 35 35 36 36 36 37 37 36 36 37 36 36 36 35 36 38 37 37 37 39 39 40 40 40 40 40 40 42 42 42 42 42 40 39 39 39 39 40 40 41 40 41 41 41 40 41 40 38 35 37 38 38 37 38 37 36 37 39 39 39 40 37 37 36 35 35 36
36 34 34 33 33 33 33 33 33 33 33 33 34 34 35 34 35 34 34 34 33 33 34 34 35 34 34 34 36 36 37 38 39 38 39 39 40 38 38 38 39 39 39 38 39 39 40 41 41 41 41 40 41 41 42 39 36 37 37 37 38 36 36 37 37 37 39 39 38 36 35 34 35 34
33 32 32 32 32 32 32 32 31 32 32 32 32 33 33 33 33 33 33 32 32 32 33 33 32 32 33 32 32 34 33 33 36 36 36 38 40 40 39 38 37 38 39 38 39 41 40 41 40 40 39 39 39 41 43 41 38 37 37 37 36 38 36 36 37 38 38 37 37 35 33 34 35 35
32 32 32 31 31 31 31 31 31 31 31 31 31 32 33 33 32 32 32 32 31 32 31 31 32 32 32 31 31 32 32 32 33 32 33 34 36 37 37 36 35 36 37 38 38 40 40 40 40 37 35 34 34 33 35 41 40 37 39 35 37 34 35 36 36 37 37 35 35 35 32 33 34 36
32 32 31 31 31 31 30 30 31 31 31 31 31 31 31 31 31 32 32 31 33 31 30 30 30 30 31 31 31 31 31 32 31 31 32 32 34 35 35 34 33 33 35 37 38 38 39 38 39 37 34 34 33 31 34 35 39 41 40 37 34 35 35 35 36 35 34 34 34 33 31 30 33 35
31 31 31 31 31 30 30 30 31 31 31 30 31 31 31 31 32 32 33 33 32 31 31 30 30 30 30 30 31 31 31 31 31 32 31 31 33 33 33 33 32 31 33 34 36 37 37 37 37 35 35 34 33 32 32 36 37 39 40 40 36 33 35 35 34 33 33 32 34 31 31 31 33 34
31 31 31 31 30 30 30 30 30 30 30 30 30 30 31 31 32 32 32 31 31 31 31 31 30 29 29 29 28 29 31 32 32 31 31 30 30 31 31 33 33 33 33 34 34 35 36 34 34 35 34 34 34 34 35 34 33 35 36 41 38 34 33 35 32 32 33 32 32 32 32 31 34 35
30 30 30 30 30 31 30 30 30 29 30 29 30 29 30 30 31 31 31 31 31 31 31 30 31 31 30 28 27 29 30 30 30 29 32 31 31 31 32 31 31 33 34 33 33 33 33 35 35 35 36 37 37 37 36 34 33 32 33 37 40 38 35 32 31 32 32 33 32 31 29 27 32 29
31 31 30 29 30 30 29 30 29 29 29 30 30 31 30 30 31 30 30 30 30 31 31 31 31 30 29 29 29 28 30 29 30 29 29 30 31 31 32 33 33 33 34 33 33 33 34 34 33 34 35 35 35 37 36 36 34 34 34 37 37 37 38 38 37 34 30 31 32 30 28 28 27 19
30 31 29 31 31 29 30 29 29 29 28 28 29 29 30 29 29 33 31 31 31 31 31 31 30 31 31 30 29 29 29 29 28 30 30 30 31 30 33 33 33 34 36 36 36 37 36 35 34 35 36 35 35 34 31 32 32 32 33 31 28 32 37 38 37 37 35 33 29 26 26 28 26 27
30 30 29 29 29 29 29 30 29 29 29 28 28 28 29 30 29 29 29 29 29 30 30 30 31 31 31 30 30 30 30 29 28 28 27 27 29 31 31 32 31 32 32 34 34 34 32 33 35 35 35 34 31 32 33 31 31 31 33 33 36 27 31 36 38 37 37 38 35 30 27 28 27 27
29 30 29 29 29 29 29 29 29 29 29 28 26 27 27 28 28 28 27 27 28 28 28 30 32 32 31 31 32 33 33 32 32 32 31 29 28 28 29 30 30 29 29 28 31 32 31 32 32 34 35 34 30 32 32 30 30 30 31 29 28 31 35 28 29 32 31 33 35 36 37 36 35 38
28 29 28 28 27 26 26 28 28 29 28 26 29 26 26 27 27 27 28 28 27 28 28 29 31 32 32 32 32 32 32 34 34 33 32 33 32 30 29 30 31 29 30 29 31 32 30 31 30 29 30 28 27 31 32 32 32 30 29 31 34 30 27 26 33 31 27 30 33 35 35 37 37 37
MSLP
1012.95 1012.91 1013.03 1013.15 1013.15 1013.23 1013.27 1013.47 1013.71 1013.87 1014.03 1014.15 1014.35 1014.63 1015.07 1015.19 1015.75 1016.39 1016.59 1016.59 1016.71 1016.55 1016.47 1016.99 1016.99 1016.99 1017.23 1017.47 1017.59 1017.99 1018.07 1018.19 1018.43 1018.75 1018.99 1019.19 1019.39 1019.55 1019.75 1019.99 1020.27 1020.63 1020.91 1021.07 1021.27 1021.47 1021.63 1021.75 1021.99 1022.15 1022.27 1022.47 1022.63 1022.79 1022.99 1023.19 1023.43 1023.63 1023.63 1023.67 1023.75 1023.95 1024.19 1024.39 1024.55 1024.67 1024.79 1025.03 1025.23 1025.43 1025.59 1025.71 1025.87 1026.03
1012.63 1012.79 1013.03 1012.99 1013.03 1013.03 1013.11 1013.27 1013.39 1013.59 1013.75 1014.03 1014.23 1014.51 1014.75 1015.03 1015.31 1015.63 1016.19 1016.31 1016.19 1016.39 1016.31 1016.39 1016.83 1016.83 1016.99 1017.23 1017.51 1017.63 1017.83 1018.03 1018.27 1018.55 1018.79 1019.03 1019.19 1019.35 1019.63 1019.87 1020.15 1020.51 1020.79 1020.99 1021.11 1021.43 1021.43 1021.67 1021.83 1022.07 1022.23 1022.47 1022.63 1022.83 1023.07 1023.27 1023.43 1023.55 1023.63 1023.71 1023.83 1024.07 1024.27 1024.51 1024.67 1024.83 1025.03 1025.19 1025.35 1025.47 1025.59 1025.75 1025.87 1025.99
1012.47 1012.75 1012.83 1012.87 1012.91 1012.91 1012.99 1013.07 1013.15 1013.35 1013.55 1013.79 1014.03 1014.31 1014.59 1014.95 1015.19 1015.23 1015.39 1016.15 1015.91 1015.79 1016.31 1016.11 1016.11 1016.47 1016.71 1016.95 1017.27 1017.51 1017.71 1017.95 1018.19 1018.43 1018.67 1018.83 1019.03 1019.31 1019.55 1019.75 1020.03 1020.31 1020.63 1020.87 1021.07 1021.31 1021.39 1021.67 1021.87 1021.95 1022.15 1022.39 1022.63 1022.83 1023.07 1023.27 1023.43 1023.51 1023.63 1023.83 1023.95 1024.11 1024.35 1024.55 1024.75 1024.91 1025.07 1025.23 1025.35 1025.47 1025.59 1025.67 1025.79 1025.91
1012.27 1012.39 1012.51 1012.63 1012.75 1012.79 1012.91 1012.99 1013.07 1013.19 1013.35 1013.55 1013.87 1014.11 1014.43 1014.75 1015.07 1015.43 1015.63 1015.63 1016.03 1015.71 1015.75 1015.99 1016.15 1016.23 1016.59 1016.83 1017.15 1017.47 1017.75 1017.99 1018.15 1018.35 1018.55 1018.71 1019.03 1019.35 1019.51 1019.75 1019.95 1020.23 1020.51 1020.75 1020.91 1021.15 1021.27 1021.59 1021.75 1021.95 1022.15 1022.35 1022.59 1022.83 1022.99 1023.19 1023.31 1023.51 1023.71 1023.87 1024.03 1024.19 1024.39 1024.59 1024.75 1024.91 1025.07 1025.19 1025.31 1025.43 1025.51 1025.59 1025.71 1025.83
1012.19 1012.19 1012.31 1012.31 1012.43 1012.63 1012.75 1012.83 1012.95 1013.07 1013.19 1013.35 1013.63 1013.91 1014.19 1014.55 1014.67 1014.91 1015.35 1015.67 1015.91 1015.95 1015.75 1015.95 1016.11 1016.19 1016.43 1016.91 1016.95 1017.27 1017.63 1018.03 1018.27 1018.39 1018.55 1018.79 1019.07 1019.31 1019.47 1019.67 1019.95 1020.19 1020.47 1020.63 1020.83 1020.95 1021.27 1021.43 1021.59 1021.83 1022.11 1022.31 1022.51 1022.75 1022.95 1023.11 1023.31 1023.51 1023.67 1023.87 1024.03 1024.19 1024.39 1024.59 1024.75 1024.91 1025.07 1025.19 1025.27 1025.39 1025.47 1025.55 1025.67 1025.75
1011.99 1012.27 1012.23 1012.07 1012.15 1012.27 1012.47 1012.55 1012.75 1012.87 1013.03 1013.23 1013.47 1013.71 1014.03 1014.39 1014.63 1014.75 1015.31 1015.59 1015.71 1015.95 1015.91 1016.03 1016.11 1016.31 1016.31 1016.67 1016.71 1017.11 1017.55 1017.95 1018.19 1018.43 1018.71 1018.91 1018.99 1019.19 1019.39 1019.63 1019.87 1020.15 1020.35 1020.59 1020.71 1020.91 1021.11 1021.47 1021.59 1021.79 1022.03 1022.27 1022.51 1022.71 1022.91 1023.11 1023.31 1023.43 1023.63 1023.79 1023.95 1024.15 1024.35 1024.55 1024.75 1024.91 1025.03 1025.15 1025.27 1025.39 1025.47 1025.55 1025.63 1025.71
1011.91 1012.15 1012.11 1011.99 1011.99 1012.07 1012.39 1012.47 1012.55 1012.67 1012.87 1013.03 1013.23 1013.51 1013.75 1014.15 1014.43 1014.67 1014.71 1015.07 1015.47 1015.71 1015.99 1015.91 1016.19 1016.19 1016.15 1016.35 1016.71 1016.95 1017.31 1017.63 1017.91 1018.31 1018.67 1018.91 1019.03 1019.15 1019.31 1019.51 1019.71 1019.99 1020.23 1020.43 1020.63 1020.87 1021.15 1021.35 1021.55 1021.75 1022.03 1022.27 1022.51 1022.75 1022.95 1023.11 1023.27 1023.39 1023.55 1023.71 1023.87 1024.07 1024.27 1024.47 1024.71 1024.87 1024.99 1025.15 1025.31 1025.39 1025.47 1025.55 1025.59 1025.63
1012.03 1012.11 1012.03 1011.91 1011.99 1012.07 1012.31 1012.43 1012.55 1012.63 1012.75 1012.91 1013.11 1013.35 1013.59 1013.91 1014.23 1014.31 1014.47 1014.67 1014.99 1015.39 1015.75 1015.99 1016.07 1016.11 1016.03 1016.15 1016.51 1016.87 1017.23 1017.59 1017.95 1018.27 1018.59 1018.75 1018.91 1019.15 1019.31 1019.47 1019.63 1019.87 1020.11 1020.35 1020.55 1020.83 1021.07 1021.31 1021.51 1021.75 1022.03 1022.27 1022.51 1022.71 1022.91 1023.03 1023.19 1023.35 1023.51 1023.67 1023.83 1024.03 1024.19 1024.43 1024.67 1024.83 1024.99 1025.11 1025.19 1025.31 1025.39 1025.47 1025.55 1025.59
1011.79 1011.83 1011.83 1011.99 1012.07 1012.15 1012.27 1012.39 1012.47 1012.51 1012.63 1012.71 1012.87 1013.07 1013.23 1013.59 1013.87 1014.11 1014.39 1014.51 1014.51 1014.87 1015.11 1015.51 1015.55 1015.79 1016.23 1016.51 1016.83 1016.83 1017.23 1017.71 1017.99 1018.31 1018.59 1018.71 1018.83 1019.11 1019.27 1019.39 1019.55 1019.83 1020.11 1020.31 1020.51 1020.79 1021.03 1021.23 1021.47 1021.75 1022.03 1022.27 1022.47 1022.63 1022.79 1022.99 1023.15 1023.31 1023.43 1023.63 1023.79 1023.95 1024.15 1024.39 1024.63 1024.79 1024.91 1025.03 1025.11 1025.19 1025.23 1025.35 1025.43 1025.51
1011.63 1011.75 1011.87 1011.99 1012.03 1012.11 1012.19 1012.27 1012.35 1012.35 1012.39 1012.51 1012.75 1012.99 1013.23 1013.39 1013.63 1013.95 1014.23 1014.31 1014.43 1014.55 1014.95 1015.23 1015.75 1015.79 1016.07 1016.47 1016.91 1016.87 1017.03 1017.47 1017.99 1018.35 1018.55 1018.63 1018.83 1019.11 1019.35 1019.39 1019.59 1019.91 1020.15 1020.47 1020.71 1020.87 1021.03 1021.23 1021.47 1021.79 1022.03 1022.23 1022.39 1022.55 1022.75 1022.95 1023.11 1023.31 1023.43 1023.59 1023.75 1023.95 1024.11 1024.31 1024.51 1024.67 1024.83 1024.99 1025.11 1025.19 1025.23 1025.31 1025.39 1025.43
1011.71 1011.75 1011.83 1011.83 1011.95 1012.11 1012.23 1012.27 1012.27 1012.31 1012.39 1012.43 1012.59 1012.79 1012.99 1013.23 1013.59 1013.87 1014.03 1014.19 1014.35 1014.55 1015.07 1015.35 1015.39 1015.67 1015.95 1015.91 1016.43 1016.75 1016.87 1017.27 1017.47 1017.91 1018.39 1018.67 1018.87 1019.03 1019.15 1019.51 1019.75 1019.95 1020.27 1020.51 1020.71 1020.87 1021.07 1021.35 1021.63 1021.87 1022.03 1022.23 1022.39 1022.55 1022.75 1022.95 1023.15 1023.31 1023.47 1023.63 1023.75 1023.87 1024.03 1024.19 1024.35 1024.55 1024.75 1024.91 1025.03 1025.11 1025.23 1025.31 1025.35 1025.35
1011.99 1011.91 1011.95 1011.99 1011.99 1012.03 1012.11 1012.15 1012.19 1012.27 1012.39 1012.43 1012.55 1012.67 1012.83 1013.15 1013.47 1013.79 1014.03 1014.31 1014.47 1014.75 1015.11 1015.15 1015.43 1015.47 1015.63 1016.03 1016.23 1016.63 1017.07 1017.55 1017.75 1017.71 1017.83 1018.19 1018.67 1018.91 1019.11 1019.23 1019.75 1020.15 1020.31 1020.71 1021.03 1021.27 1021.39 1021.63 1021.87 1022.07 1022.23 1022.31 1022.43 1022.63 1022.79 1022.95 1023.15 1023.35 1023.51 1023.67 1023.75 1023.87 1023.99 1024.15 1024.31 1024.47 1024.59 1024.75 1024.87 1025.03 1025.19 1025.31 1025.39 1025.39
1011.99 1011.95 1011.91 1011.91 1011.95 1011.87 1011.91 1012.03 1012.11 1012.15 1012.15 1012.27 1012.51 1012.71 1012.87 1013.15 1013.39 1013.59 1013.79 1014.07 1014.43 1014.63 1014.87 1015.15 1015.39 1015.63 1015.87 1015.79 1016.15 1016.51 1016.71 1016.91 1017.03 1017.51 1017.75 1018.07 1018.55 1018.83 1019.19 1019.51 1019.67 1020.03 1020.43 1020.87 1021.11 1021.43 1021.51 1021.71 1021.99 1022.19 1022.39 1022.59 1022.63 1022.75 1022.83 1023.03 1023.19 1023.35 1023.55 1023.67 1023.79 1023.91 1024.03 1024.15 1024.27 1024.43 1024.55 1024.67 1024.83 1024.99 1025.11 1025.23 1025.31 1025.39
1012.11 1012.19 1012.03 1011.87 1011.75 1011.67 1011.67 1011.83 1012.03 1012.03 1012.03 1012.07 1012.23 1012.59 1012.87 1013.03 1013.31 1013.55 1013.75 1013.99 1014.11 1014.31 1014.59 1014.87 1015.19 1015.51 1015.55 1015.75 1015.91 1015.99 1016.07 1016.35 1016.95 1017.55 1017.83 1018.07 1018.67 1019.07 1019.43 1019.75 1019.91 1020.07 1020.31 1020.87 1021.27 1021.51 1021.63 1021.71 1022.03 1022.19 1022.39 1022.59 1022.67 1022.83 1022.95 1023.03 1023.19 1023.35 1023.51 1023.67 1023.83 1023.99 1024.11 1024.23 1024.35 1024.47 1024.59 1024.67 1024.75 1024.87 1024.99 1025.11 1025.19 1025.31
1012.55 1012.47 1012.35 1012.27 1011.99 1011.75 1011.67 1011.95 1012.23 1012.19 1011.99 1012.11 1012.31 1012.51 1012.71 1012.79 1012.91 1013.23 1013.63 1013.83 1013.99 1014.27 1014.31 1014.47 1014.87 1014.91 1015.27 1015.47 1015.63 1015.75 1016.31 1016.51 1016.83 1017.23 1017.63 1018.07 1018.63 1018.95 1019.27 1019.47 1020.03 1020.11 1020.11 1020.71 1021.15 1021.55 1021.63 1021.67 1021.95 1022.23 1022.39 1022.55 1022.71 1022.87 1022.91 1023.03 1023.19 1023.35 1023.55 1023.75 1023.91 1024.07 1024.19 1024.31 1024.43 1024.59 1024.67 1024.75 1024.83 1024.91 1025.03 1025.11 1025.19 1025.27
1013.23 1012.91 1012.87 1012.83 1012.59 1012.23 1012.07 1012.23 1012.35 1012.47 1012.31 1012.27 1012.43 1012.59 1012.91 1013.11 1013.15 1013.11 1013.15 1013.39 1013.87 1014.11 1014.31 1014.47 1014.43 1014.43 1014.75 1014.99 1015.43 1015.63 1016.07 1016.35 1016.79 1017.19 1017.55 1017.87 1018.19 1018.71 1019.03 1019.19 1019.15 1019.47 1019.79 1020.39 1020.91 1021.47 1021.75 1021.71 1021.95 1022.27 1022.59 1022.67 1022.75 1022.91 1023.07 1023.23 1023.35 1023.51 1023.63 1023.79 1023.95 1024.07 1024.19 1024.31 1024.47 1024.63 1024.75 1024.87 1024.91 1024.99 1025.07 1025.15 1025.27 1025.39
1014.03 1013.59 1013.19 1013.15 1013.03 1012.87 1012.55 1012.55 1012.63 1012.75 1012.87 1012.91 1012.95 1013.11 1013.39 1013.71 1013.87 1013.83 1013.63 1013.39 1013.39 1013.59 1013.91 1014.11 1014.35 1014.47 1014.67 1015.07 1015.19 1015.03 1015.23 1015.79 1016.51 1017.11 1017.59 1017.75 1017.87 1017.95 1018.31 1018.47 1018.79 1019.55 1019.47 1020.15 1020.83 1021.43 1021.95 1021.99 1022.15 1022.47 1022.91 1022.91 1022.99 1023.15 1023.31 1023.43 1023.51 1023.63 1023.79 1023.91 1023.99 1024.11 1024.23 1024.39 1024.51 1024.63 1024.79 1024.91 1024.91 1024.99 1025.15 1025.27 1025.35 1025.43
1014.55 1014.35 1013.99 1013.83 1013.79 1013.63 1013.39 1013.11 1013.03 1013.11 1013.19 1013.35 1013.63 1013.95 1014.27 1014.51 1014.43 1014.27 1014.19 1013.91 1013.63 1013.59 1013.75 1013.99 1014.31 1014.51 1014.59 1014.63 1014.83 1015.27 1015.27 1015.75 1016.27 1016.71 1016.87 1017.31 1017.63 1017.79 1017.71 1018.07 1018.51 1019.15 1019.15 1019.43 1020.39 1021.63 1022.15 1022.15 1022.35 1022.71 1023.07 1022.99 1023.15 1023.31 1023.39 1023.51 1023.59 1023.71 1023.91 1024.03 1024.15 1024.27 1024.35 1024.43 1024.55 1024.67 1024.79 1024.91 1024.99 1025.11 1025.27 1025.39 1025.47 1025.51
1015.07 1014.99 1014.79 1014.59 1014.47 1014.23 1014.07 1013.87 1013.59 1013.59 1013.75 1014.03 1014.35 1014.59 1014.95 1015.11 1015.19 1015.15 1015.07 1014.83 1014.43 1014.11 1014.07 1014.23 1014.47 1014.75 1014.99 1014.91 1015.11 1015.35 1015.47 1015.59 1015.47 1015.55 1015.79 1016.23 1016.67 1017.51 1018.19 1018.59 1018.95 1019.39 1019.47 1019.63 1019.63 1020.95 1022.23 1022.27 1022.43 1022.95 1023.15 1023.19 1023.35 1023.47 1023.55 1023.63 1023.71 1023.83 1023.99 1024.15 1024.27 1024.39 1024.47 1024.59 1024.67 1024.79 1024.91 1025.03 1025.11 1025.27 1025.51 1025.71 1025.79 1025.87
1015.51 1015.51 1015.39 1015.15 1015.03 1014.83 1014.67 1014.63 1014.31 1014.27 1014.27 1014.47 1014.75 1014.95 1015.15 1015.23 1015.27 1015.67 1016.11 1015.83 1015.47 1015.39 1015.39 1015.59 1015.75 1015.87 1015.87 1015.67 1015.51 1015.55 1015.79 1016.11 1016.27 1016.19 1016.39 1016.83 1017.27 1017.55 1017.99 1018.67 1019.35 1019.35 1019.59 1019.67 1019.75 1021.11 1022.19 1022.35 1022.59 1023.23 1023.39 1023.31 1023.51 1023.63 1023.71 1023.75 1023.83 1023.99 1024.11 1024.27 1024.39 1024.47 1024.63 1024.75 1024.87 1024.95 1025.07 1025.23 1025.39 1025.55 1025.79 1025.95 1026.07 1026.11
1016.31 1016.15 1015.79 1015.51 1015.51 1015.47 1015.31 1015.31 1014.91 1014.91 1014.75 1015.07 1015.35 1015.35 1015.47 1015.67 1015.71 1016.31 1016.27 1016.15 1016.03 1016.03 1016.07 1016.15 1016.23 1016.11 1015.87 1015.95 1016.03 1016.03 1016.15 1016.19 1016.47 1016.63 1016.83 1017.11 1017.19 1017.55 1017.99 1018.99 1019.35 1019.39 1019.63 1019.67 1019.91 1020.75 1022.07 1022.51 1022.67 1023.35 1023.59 1023.67 1023.83 1023.95 1023.99 1024.07 1024.11 1024.11 1024.19 1024.31 1024.47 1024.67 1024.83 1024.95 1025.07 1025.23 1025.31 1025.43 1025.59 1025.75 1025.95 1026.11 1026.23 1026.35
1017.15 1016.95 1016.59 1016.27 1016.15 1016.11 1016.11 1015.91 1015.55 1015.31 1015.15 1015.55 1015.91 1015.95 1015.99 1016.19 1016.55 1016.95 1016.83 1016.43 1016.39 1016.35 1016.27 1016.27 1016.43 1016.55 1016.31 1016.15 1016.39 1016.63 1016.55 1016.63 1016.71 1016.51 1016.51 1016.83 1016.99 1017.15 1017.47 1018.23 1019.15 1019.59 1019.67 1019.91 1019.91 1020.67 1021.91 1022.39 1022.55 1023.07 1023.79 1023.79 1024.07 1024.11 1024.19 1024.27 1024.31 1024.35 1024.43 1024.55 1024.71 1024.83 1024.91 1024.99 1025.19 1025.35 1025.47 1025.59 1025.75 1025.87 1026.07 1026.27 1026.39 1026.55
1018.07 1017.87 1017.59 1017.27 1016.91 1016.79 1016.79 1016.51 1016.35 1016.11 1015.75 1016.23 1016.67 1016.67 1016.59 1017.07 1017.43 1017.83 1017.43 1017.15 1016.99 1016.87 1016.67 1016.75 1016.51 1016.87 1016.87 1016.75 1016.99 1017.27 1017.27 1017.15 1017.19 1017.19 1017.03 1017.15 1017.11 1017.23 1017.75 1018.43 1019.23 1019.75 1019.75 1019.95 1019.83 1020.63 1022.19 1022.23 1022.51 1022.11 1023.15 1024.11 1024.35 1024.27 1024.35 1024.43 1024.59 1024.75 1024.83 1024.87 1024.95 1025.03 1025.11 1025.23 1025.35 1025.51 1025.63 1025.75 1025.87 1026.03 1026.23 1026.43 1026.55 1026.79
1018.75 1018.63 1018.43 1018.23 1018.07 1017.63 1017.43 1017.39 1017.27 1017.11 1016.91 1016.99 1017.27 1017.07 1017.35 1017.63 1018.15 1018.19 1017.83 1017.87 1017.75 1017.75 1017.87 1017.99 1017.75 1017.95 1017.75 1017.59 1017.55 1017.63 1017.83 1017.99 1017.99 1017.99 1017.83 1017.67 1017.55 1017.75 1018.19 1018.55 1018.51 1018.35 1019.03 1019.67 1019.75 1020.31 1021.71 1021.87 1022.19 1021.99 1021.75 1022.59 1024.03 1024.39 1024.51 1024.67 1024.83 1025.07 1025.19 1025.23 1025.35 1025.47 1025.43 1025.55 1025.71 1025.87 1025.99 1026.07 1026.19 1026.31 1026.47 1026.59 1026.67 1026.91
1019.75 1019.63 1019.51 1019.43 1019.03 1018.51 1018.39 1018.35 1018.23 1018.15 1018.11 1018.07 1018.03 1018.19 1018.35 1018.51 1018.63 1018.27 1018.15 1018.31 1018.11 1018.19 1018.39 1018.43 1018.31 1018.35 1018.23 1018.23 1018.27 1018.47 1018.79 1018.87 1018.63 1018.51 1018.55 1018.51 1018.55 1018.51 1018.47 1018.47 1018.71 1019.51 1020.07 1019.95 1019.83 1019.91 1021.03 1021.59 1022.07 1022.07 1022.19 1022.51 1022.95 1023.95 1024.67 1024.79 1025.03 1025.19 1025.39 1025.51 1025.55 1025.59 1025.67 1025.87 1025.99 1026.15 1026.27 1026.35 1026.47 1026.59 1026.75 1026.87 1026.99 1026.99
1020.55 1020.59 1020.51 1020.47 1020.07 1019.43 1019.27 1019.07 1018.99 1018.99 1018.99 1018.95 1018.87 1019.27 1019.11 1019.07 1018.91 1018.83 1018.95 1018.95 1018.87 1018.95 1018.99 1018.95 1018.91 1019.03 1019.07 1019.07 1019.27 1019.35 1019.63 1019.71 1019.39 1019.15 1019.35 1019.23 1019.19 1019.63 1019.75 1019.75 1019.79 1019.67 1019.95 1020.07 1020.07 1020.11 1020.55 1021.59 1021.59 1021.87 1022.31 1022.63 1023.67 1023.63 1024.31 1024.87 1025.07 1025.27 1025.43 1025.55 1025.63 1025.75 1025.87 1026.03 1026.19 1026.39 1026.51 1026.59 1026.75 1026.87 1026.95 1027.03 1027.15 1027.23
1021.51 1021.31 1021.15 1021.07 1020.63 1020.27 1020.07 1019.95 1019.87 1019.83 1019.71 1019.59 1019.83 1019.71 1019.59 1019.55 1019.47 1019.35 1019.43 1019.43 1019.43 1019.51 1019.59 1019.63 1019.83 1019.91 1019.87 1019.91 1020.11 1020.23 1020.31 1020.35 1020.23 1020.15 1020.27 1019.95 1019.67 1019.91 1020.19 1020.35 1020.39 1020.55 1020.59 1020.39 1020.31 1020.27 1020.31 1020.91 1021.39 1021.71 1022.15 1022.39 1023.07 1023.99 1024.07 1024.59 1024.99 1025.35 1025.55 1025.63 1025.79 1025.91 1026.07 1026.15 1026.27 1026.47 1026.63 1026.75 1026.95 1027.03 1027.11 1027.27 1027.35 1027.47
1021.95 1021.83 1021.75 1021.59 1021.15 1020.83 1020.71 1020.67 1020.63 1020.59 1020.55 1020.67 1020.55 1020.35 1020.19 1020.07 1019.99 1019.95 1019.99 1020.03 1020.15 1020.19 1020.27 1020.39 1020.63 1020.79 1020.83 1020.67 1020.71 1020.83 1020.91 1020.83 1020.75 1020.75 1020.59 1020.43 1020.39 1020.47 1020.63 1020.67 1020.71 1020.79 1020.75 1020.71 1020.67 1020.67 1020.71 1021.03 1021.39 1021.63 1021.75 1021.99 1022.55 1023.23 1024.19 1024.51 1024.79 1025.27 1025.51 1025.79 1025.95 1026.07 1026.19 1026.23 1026.39 1026.67 1026.83 1026.95 1027.11 1027.23 1027.31 1027.51 1027.59 1027.59
1022.31 1022.27 1022.03 1021.75 1021.55 1021.43 1021.35 1021.27 1021.15 1021.11 1021.23 1021.23 1021.11 1020.95 1020.83 1020.63 1020.59 1020.55 1020.55 1020.59 1020.47 1020.59 1020.87 1021.03 1021.11 1021.23 1021.31 1021.35 1021.39 1021.31 1021.23 1021.19 1021.11 1021.11 1021.15 1021.11 1021.11 1021.07 1021.07 1021.27 1021.35 1021.35 1021.31 1021.19 1021.07 1021.07 1021.15 1021.39 1021.75 1022.07 1022.39 1022.63 1023.03 1023.39 1023.51 1024.31 1024.91 1025.35 1025.55 1025.87 1025.95 1026.07 1026.15 1026.23 1026.31 1026.63 1026.95 1027.07 1027.15 1027.23 1027.27 1027.39 1027.51 1027.63
1022.59 1022.43 1022.31 1022.11 1021.99 1021.91 1021.87 1021.71 1021.79 1021.95 1022.07 1021.83 1021.63 1021.51 1021.39 1021.35 1021.43 1021.39 1021.31 1021.27 1021.19 1021.43 1021.51 1021.51 1021.59 1021.75 1021.67 1021.63 1021.63 1021.51 1021.47 1021.55 1021.91 1021.83 1021.75 1021.71 1021.71 1021.59 1021.43 1021.43 1021.79 1021.91 1021.91 1021.75 1021.55 1021.47 1021.47 1021.67 1021.95 1022.19 1022.75 1023.15 1023.31 1023.75 1024.15 1024.55 1025.19 1025.59 1025.75 1025.79 1026.03 1026.23 1026.23 1026.23 1026.31 1026.63 1026.87 1027.03 1027.15 1027.31 1027.47 1027.47 1027.55 1027.67
1023.07 1022.99 1022.87 1022.79 1022.67 1022.55 1022.47 1022.43 1022.47 1022.43 1022.35 1022.23 1022.27 1022.27 1022.23 1022.19 1022.15 1022.07 1021.99 1022.03 1022.07 1022.15 1022.15 1022.19 1022.19 1022.15 1022.07 1021.91 1021.71 1021.83 1021.91 1022.07 1022.19 1022.15 1021.91 1021.95 1022.11 1022.03 1022.03 1022.11 1022.35 1022.31 1022.39 1022.23 1022.11 1022.07 1022.11 1022.23 1022.35 1022.35 1022.79 1023.55 1023.91 1024.11 1024.47 1024.83 1025.35 1025.67 1025.99 1026.11 1025.95 1025.59 1026.15 1026.39 1026.51 1026.59 1026.83 1027.07 1027.27 1027.43 1027.63 1027.75 1027.83 1027.91
1023.67 1023.55 1023.39 1023.23 1023.27 1023.11 1023.03 1023.03 1022.99 1023.07 1023.11 1023.15 1023.15 1023.11 1023.07 1022.91 1022.79 1022.63 1022.43 1022.31 1022.43 1022.51 1022.51 1022.47 1022.39 1022.31 1022.23 1022.27 1022.35 1022.23 1022.23 1022.39 1022.47 1022.35 1022.03 1022.11 1022.19 1022.23 1021.99 1022.23 1022.71 1022.83 1022.87 1022.87 1022.83 1022.79 1022.75 1022.83 1022.91 1023.11 1023.27 1023.27 1023.83 1024.75 1025.07 1025.43 1025.79 1026.07 1026.27 1026.43 1026.35 1026.47 1026.43 1026.31 1026.51 1026.87 1026.95 1027.03 1027.31 1027.55 1027.87 1027.95 1027.95 1028.07
1023.95 1023.83 1023.87 1024.03 1024.03 1024.11 1024.15 1024.15 1024.11 1024.07 1023.87 1023.79 1023.79 1023.75 1023.75 1023.63 1023.43 1023.35 1023.31 1023.31 1023.39 1023.27 1022.87 1022.91 1022.95 1022.91 1022.75 1022.67 1022.63 1022.47 1022.39 1022.59 1022.71 1022.59 1022.31 1022.39 1022.39 1022.67 1022.71 1023.03 1023.19 1023.23 1023.39 1023.59 1023.59 1023.59 1023.55 1023.59 1023.67 1023.79 1023.99 1024.31 1024.55 1024.91 1025.35 1025.91 1026.31 1026.35 1026.31 1026.51 1026.39 1026.51 1026.75 1026.79 1026.67 1026.83 1026.99 1027.07 1027.55 1027.79 1027.99 1028.27 1028.35 1028.35
1024.43 1024.79 1024.91 1025.11 1025.15 1025.07 1024.95 1024.91 1024.95 1024.91 1024.83 1024.63 1024.43 1024.39 1024.35 1024.31 1024.19 1024.15 1024.07 1024.07 1024.03 1023.75 1023.51 1023.43 1023.15 1023.19 1023.03 1022.99 1023.03 1022.83 1022.71 1022.55 1022.79 1023.03 1022.67 1022.71 1022.71 1022.95 1023.27 1023.39 1023.71 1023.79 1023.75 1023.95 1024.03 1024.11 1024.03 1024.03 1024.07 1024.27 1024.51 1024.95 1025.23 1025.39 1025.35 1025.55 1026.35 1026.51 1026.59 1026.55 1026.35 1026.51 1026.95 1026.87 1026.87 1026.87 1026.79 1026.87 1027.31 1027.79 1028.11 1028.39 1028.51 1028.55
1025.47 1025.71 1025.71 1025.91 1025.87 1025.87 1025.83 1025.79 1025.79 1025.67 1025.51 1025.47 1025.23 1025.11 1024.95 1024.91 1024.87 1024.75 1024.67 1024.71 1024.51 1024.11 1023.83 1023.71 1023.75 1023.59 1023.39 1023.35 1023.31 1022.99 1023.15 1022.91 1022.87 1023.19 1023.47 1023.19 1023.07 1023.27 1023.43 1023.51 1023.79 1023.91 1023.95 1024.07 1024.19 1024.23 1024.15 1024.23 1024.23 1024.59 1024.95 1025.11 1025.31 1025.67 1025.83 1025.95 1026.03 1026.43 1026.55 1026.67 1026.75 1026.59 1026.83 1026.99 1026.95 1026.99 1027.07 1027.31 1027.39 1027.75 1028.27 1028.43 1028.43 1028.55
1026.19 1026.23 1026.27 1026.31 1026.43 1026.35 1026.23 1026.35 1026.27 1026.15 1026.03 1025.99 1025.91 1025.71 1025.39 1025.39 1025.51 1025.43 1025.27 1025.23 1024.99 1024.75 1024.51 1024.27 1024.15 1024.19 1023.91 1023.79 1023.71 1023.47 1023.43 1023.31 1023.35 1023.55 1023.63 1023.67 1023.47 1023.59 1023.79 1023.95 1023.99 1024.15 1024.27 1024.39 1024.51 1024.47 1024.35 1024.31 1024.31 1024.63 1025.23 1025.87 1026.23 1026.43 1026.23 1026.27 1026.23 1026.27 1026.11 1026.63 1026.83 1026.87 1027.07 1027.15 1027.15 1027.19 1027.19 1027.43 1027.59 1027.59 1027.75 1027.99 1028.31 1028.47
1026.75 1026.87 1026.91 1026.99 1027.07 1026.99 1026.95 1026.95 1026.79 1026.71 1026.63 1026.47 1026.35 1026.31 1026.15 1026.03 1025.95 1025.79 1025.67 1025.35 1025.15 1025.27 1025.27 1025.07 1024.87 1024.87 1024.43 1024.23 1024.27 1024.39 1024.07 1023.47 1023.51 1023.95 1024.19 1024.43 1024.11 1023.95 1023.95 1024.31 1024.39 1024.39 1024.47 1024.59 1024.71 1024.75 1024.79 1024.87 1024.95 1025.35 1025.95 1026.47 1026.67 1026.83 1026.75 1026.43 1026.39 1026.43 1026.35 1026.43 1026.95 1027.07 1027.07 1027.11 1027.07 1027.27 1027.67 1027.59 1027.59 1027.59 1027.63 1027.83 1028.11 1028.39
1027.23 1027.31 1027.27 1027.43 1027.43 1027.39 1027.35 1027.31 1027.15 1027.07 1027.03 1026.91 1026.75 1026.55 1026.51 1026.47 1026.31 1026.11 1025.87 1025.59 1025.71 1025.59 1025.51 1025.39 1025.31 1025.11 1024.83 1024.67 1024.11 1024.35 1024.63 1024.67 1024.31 1024.11 1024.47 1024.35 1024.07 1024.43 1024.51 1024.71 1025.35 1025.31 1025.03 1024.87 1024.95 1025.39 1025.55 1025.63 1025.63 1025.87 1026.03 1026.39 1026.75 1026.95 1026.99 1026.75 1026.63 1026.51 1026.67 1026.59 1026.71 1027.27 1027.27 1027.19 1027.35 1027.55 1027.83 1028.15 1027.99 1028.27 1028.27 1027.99 1028.19 1028.39
1027.59 1027.55 1027.59 1027.59 1027.71 1027.67 1027.63 1027.63 1027.55 1027.43 1027.39 1027.31 1027.19 1027.11 1026.87 1026.71 1026.63 1026.43 1026.31 1026.31 1026.19 1026.03 1025.87 1025.71 1025.67 1025.67 1025.23 1024.99 1024.95 1024.51 1023.99 1023.87 1023.99 1024.23 1024.35 1024.75 1024.79 1024.75 1025.03 1024.99 1025.15 1025.55 1025.39 1025.23 1025.47 1025.87 1025.95 1025.99 1025.99 1026.03 1026.31 1026.75 1026.75 1026.83 1026.67 1026.71 1026.71 1026.75 1026.91 1026.87 1026.87 1027.23 1027.47 1027.35 1027.75 1028.03 1028.07 1028.19 1028.51 1028.63 1028.71 1028.87 1028.83 1028.75
1027.99 1027.95 1027.91 1027.87 1027.91 1027.95 1027.91 1027.91 1027.83 1027.83 1027.71 1027.67 1027.55 1027.51 1027.31 1027.15 1027.07 1026.95 1026.79 1026.71 1026.55 1026.39 1026.27 1026.23 1026.07 1025.79 1025.55 1025.51 1025.11 1025.11 1025.23 1025.23 1025.11 1024.83 1024.75 1024.87 1025.11 1025.27 1025.39 1025.59 1025.63 1025.79 1025.79 1025.83 1025.83 1026.15 1026.23 1026.19 1026.15 1026.15 1026.07 1026.07 1026.15 1026.39 1026.59 1026.59 1026.75 1027.03 1027.11 1027.19 1027.23 1026.99 1027.23 1027.51 1027.67 1027.91 1028.15 1028.35 1028.47 1028.39 1028.43 1028.55 1028.35 1028.63
1028.03 1027.99 1028.15 1028.19 1028.15 1028.15 1028.11 1028.23 1028.23 1028.07 1028.03 1027.99 1027.79 1027.71 1027.67 1027.55 1027.39 1027.39 1027.27 1027.11 1026.95 1026.71 1026.59 1026.51 1026.35 1026.15 1026.07 1025.87 1025.63 1025.27 1025.03 1025.35 1025.47 1025.51 1025.43 1025.39 1025.51 1025.39 1025.35 1025.23 1025.35 1025.47 1025.55 1026.03 1026.03 1026.11 1026.47 1026.63 1026.55 1026.63 1026.39 1026.39 1026.59 1026.79 1026.59 1026.51 1026.75 1026.83 1026.91 1027.03 1027.23 1027.27 1027.35 1027.39 1027.35 1027.55 1027.79 1028.27 1028.23 1028.07 1028.31 1028.43 1028.55 1028.67
1028.19 1028.19 1028.35 1028.35 1028.27 1028.35 1028.31 1028.27 1028.35 1028.23 1028.23 1028.27 1028.11 1027.99 1027.87 1027.79 1027.75 1027.55 1027.39 1027.23 1027.11 1026.99 1026.87 1026.83 1026.75 1026.51 1026.31 1026.31 1026.03 1025.79 1025.47 1025.55 1025.51 1025.55 1025.59 1025.35 1025.11 1025.35 1025.11 1024.99 1025.19 1025.27 1025.35 1025.63 1025.75 1025.83 1026.35 1026.63 1026.71 1026.51 1026.51 1026.63 1026.63 1026.23 1026.39 1026.51 1026.59 1026.79 1026.87 1026.99 1027.11 1027.31 1027.43 1027.47 1027.55 1027.51 1027.47 1027.71 1027.95 1028.27 1028.67 1029.03 1028.99 1028.63
1028.31 1028.27 1028.27 1028.39 1028.39 1028.39 1028.35 1028.39 1028.43 1028.39 1028.35 1028.35 1028.27 1028.23 1028.03 1027.95 1027.91 1027.79 1027.75 1027.63 1027.59 1027.39 1027.31 1027.15 1027.03 1026.87 1026.67 1026.51 1026.43 1026.31 1025.95 1025.91 1025.99 1025.79 1025.79 1025.83 1025.63 1025.27 1025.31 1025.35 1025.39 1025.47 1025.47 1025.59 1025.91 1026.03 1026.15 1026.39 1026.51 1026.35 1026.35 1026.35 1026.35 1026.27 1026.27 1026.63 1026.59 1026.63 1026.83 1026.91 1026.95 1027.15 1027.27 1027.51 1027.51 1027.55 1027.71 1027.75 1027.79 1027.71 1027.63 1027.71 1028.27 1028.51
1028.39 1028.39 1028.47 1028.47 1028.39 1028.39 1028.39 1028.39 1028.39 1028.47 1028.39 1028.39 1028.43 1028.39 1028.31 1028.15 1028.07 1028.23 1028.15 1028.03 1027.95 1027.79 1027.71 1027.47 1027.35 1027.19 1027.03 1026.75 1026.47 1026.27 1026.31 1026.27 1026.15 1025.87 1025.79 1025.87 1025.95 1025.95 1025.87 1025.87 1025.99 1025.83 1025.87 1025.91 1025.91 1025.95 1026.19 1026.23 1026.39 1026.35 1026.15 1026.07 1026.35 1026.43 1026.43 1026.83 1026.83 1026.83 1026.91 1027.11 1027.23 1027.15 1027.03 1027.35 1027.47 1027.63 1027.75 1027.79 1027.83 1027.83 1027.75 1027.71 1027.51 1027.55
1028.59 1028.55 1028.55 1028.51 1028.47 1028.47 1028.51 1028.47 1028.43 1028.43 1028.39 1028.31 1028.23 1028.31 1028.39 1028.31 1028.27 1028.23 1028.15 1028.15 1028.11 1028.03 1027.83 1027.79 1027.63 1027.51 1027.39 1027.27 1026.83 1026.31 1026.63 1026.67 1026.39 1026.23 1026.19 1026.07 1026.11 1026.07 1026.03 1026.07 1026.15 1026.11 1025.87 1025.95 1025.87 1025.87 1026.31 1026.43 1026.47 1026.59 1026.39 1026.43 1026.55 1026.31 1026.59 1026.71 1026.59 1026.95 1027.15 1027.07 1026.83 1027.11 1027.15 1027.23 1027.07 1027.19 1027.43 1027.59 1027.91 1027.91 1027.75 1027.75 1027.67 1027.71
Wind_Speed
9 9 9 8 7 6 6 6 7 7 6 5 5 7 8 8 9 7 7 7 7 8 8 6 6 8 7 7 7 7 7 8 10 8 7 7 7 10 12 12 12 10 10 10 11 12 11 10 9 10 12 13 12 12 11 11 9 6 6 8 11 12 11 10 9 9 10 11 9 8 8 8 8 7
7 5 6 6 6 5 5 6 7 7 6 6 6 7 5 5 8 7 9 8 7 6 7 7 6 8 8 7 7 7 7 9 11 7 7 7 7 11 12 12 12 12 11 10 11 11 14 12 12 13 14 13 13 12 11 9 9 8 10 11 12 12 11 11 12 12 11 10 9 9 9 8 8 7
5 6 7 6 6 5 6 6 6 6 6 6 6 6 6 5 3 6 8 6 4 5 7 7 6 9 8 7 6 6 5 8 10 8 7 7 9 13 10 12 12 12 11 11 9 10 12 11 11 13 14 13 13 12 11 9 9 11 11 11 12 12 12 13 12 12 11 10 10 9 9 8 8 8
6 8 7 7 7 5 5 6 5 6 6 6 6 6 6 5 4 1 2 4 3 4 7 5 5 8 8 8 8 7 5 6 10 6 6 7 10 7 7 10 11 11 11 10 9 11 13 12 14 13 13 12 12 12 12 11 12 10 12 12 12 13 13 12 11 12 11 10 10 9 9 8 8 7
6 7 6 7 7 6 7 6 6 6 7 7 6 5 5 6 5 5 5 6 3 1 1 5 6 7 8 7 8 8 7 7 5 5 6 7 7 7 6 7 9 10 10 10 10 11 11 13 16 14 13 13 14 13 12 12 11 13 13 12 13 13 13 12 11 10 10 10 9 8 8 8 7 6
5 3 6 5 6 8 8 6 6 6 6 7 7 6 6 5 5 5 4 4 3 5 2 4 3 5 7 6 8 8 9 7 6 7 5 5 6 7 6 6 6 10 10 10 11 11 12 12 14 14 14 14 13 13 13 12 13 13 13 13 13 13 12 11 10 10 10 10 10 9 8 7 7 7
4 5 6 7 6 5 5 6 5 6 6 6 6 6 6 6 6 6 8 6 6 6 4 4 6 6 8 8 8 8 5 7 7 7 7 6 5 4 5 6 5 9 11 12 12 13 13 14 14 14 14 13 13 13 13 13 14 13 13 13 12 12 12 12 10 10 10 10 9 9 8 8 8 8
4 6 6 5 4 5 5 4 5 5 5 5 5 6 6 6 7 8 8 7 5 3 6 4 5 6 9 6 7 5 7 7 6 5 5 5 5 5 4 5 4 7 12 12 13 13 14 13 14 14 13 13 13 13 13 13 13 13 13 12 12 12 12 11 10 10 9 10 10 10 9 9 8 9
5 6 5 2 2 4 5 5 6 6 8 8 8 9 8 8 7 6 6 7 7 7 8 6 5 6 2 4 4 7 8 6 4 5 5 5 5 5 5 4 4 8 11 12 13 13 14 13 13 13 13 13 13 13 13 13 13 13 13 12 12 11 11 10 9 9 9 9 9 11 11 9 10 9
1 3 3 4 5 6 6 6 5 5 7 7 8 7 6 7 7 7 6 6 6 7 6 8 4 5 8 7 4 8 8 8 7 6 5 4 5 6 5 4 4 5 5 4 6 8 10 12 13 13 12 13 13 13 12 12 12 12 12 12 11 10 10 10 10 9 8 6 5 5 3 6 9 10
1 3 2 4 5 5 4 4 6 5 5 6 7 7 7 7 7 7 7 6 6 6 7 5 5 6 3 8 8 6 8 8 9 9 7 5 4 5 6 5 4 4 5 3 5 6 7 8 7 10 11 12 12 12 11 11 11 10 11 10 11 10 10 10 9 8 7 7 7 7 6 4 6 10
3 1 1 2 1 3 5 6 4 5 6 5 6 5 6 6 7 7 6 6 7 6 7 8 7 7 7 3 3 7 7 6 4 6 7 9 7 7 5 5 6 4 5 6 5 5 7 7 7 7 7 9 10 11 10 11 10 10 10 10 10 10 9 9 8 8 8 7 6 6 5 4 3 3
2 2 2 1 3 4 6 7 3 3 5 6 6 5 5 7 8 8 8 7 6 6 6 5 4 6 5 7 9 9 9 10 10 7 6 6 4 4 5 3 4 6 6 4 6 4 5 7 5 5 4 4 6 7 8 7 10 10 10 10 9 9 8 8 7 7 6 5 5 5 4 4 5 3
5 4 2 2 5 6 7 7 6 4 6 6 6 6 7 8 7 8 8 7 7 7 7 8 9 9 9 8 9 9 9 8 6 8 8 7 6 5 4 3 1 4 7 6 5 4 3 5 5 5 5 4 4 5 4 5 6 8 9 9 8 7 6 6 5 5 4 4 4 4 5 5 4 5
7 4 4 5 5 6 5 2 2 4 4 5 6 9 8 7 7 8 7 7 7 7 8 7 8 9 9 9 8 7 7 7 9 9 8 7 7 7 7 6 0 2 8 6 5 4 4 5 6 5 5 5 4 3 4 7 8 9 8 8 7 7 7 7 6 5 5 5 5 5 5 5 5 5
9 7 6 7 6 6 6 3 3 4 3 2 1 5 7 8 6 2 6 7 6 5 5 6 9 10 9 9 7 8 9 8 7 6 7 8 10 8 8 6 7 5 9 8 7 5 1 3 6 5 3 3 3 2 3 7 7 8 9 9 9 9 9 8 8 7 6 6 7 7 6 6 6 6
9 9 7 7 7 7 12 6 5 5 4 6 10 12 13 14 15 12 10 4 3 4 5 6 6 5 6 7 8 8 9 8 8 7 6 6 8 9 9 8 4 5 9 9 6 5 1 2 5 5 3 3 3 5 5 8 9 9 9 10 10 10 9 9 9 9 8 8 8 8 7 7 7 7
10 10 9 8 8 8 8 6 4 5 6 8 9 10 10 9 13 14 14 10 1 3 3 3 5 1 4 9 8 5 6 10 10 9 10 8 8 9 9 4 4 6 9 11 9 4 2 3 6 5 3 3 4 4 5 8 9 9 9 9 9 10 10 9 10 10 10 9 9 9 9 8 8 8
11 11 9 9 9 9 7 8 8 7 8 9 10 10 8 8 10 11 11 9 7 5 5 5 4 3 3 2 3 4 3 10 9 10 11 13 9 6 6 6 6 6 2 5 7 5 4 2 5 4 4 4 5 4 5 7 8 8 9 9 10 10 9 10 10 10 10 10 10 10 10 10 10 11
11 10 10 8 9 8 8 13 15 11 9 10 11 11 11 11 13 13 11 15 16 12 10 8 7 6 7 8 5 2 3 1 3 6 8 8 7 7 5 5 3 5 2 3 4 6 4 3 7 4 2 4 6 4 4 5 7 8 8 9 9 10 10 10 10 10 11 11 12 11 11 11 12 12
14 12 11 10 10 11 12 14 16 16 15 11 11 11 12 11 12 10 9 12 16 17 17 17 16 16 18 18 17 16 12 5 2 5 5 5 7 7 6 3 4 4 4 1 5 6 8 5 5 7 3 3 4 4 4 4 6 8 9 9 9 9 9 10 10 10 10 11 12 12 12 12 12 12
12 17 25 17 12 13 13 17 17 15 14 12 10 11 13 14 14 11 8 8 10 13 15 17 18 18 18 19 20 19 17 16 7 4 8 6 6 7 7 6 3 3 2 1 6 7 6 7 7 9 4 5 3 3 3 4 4 6 8 9 9 9 9 9 9 10 10 11 12 12 12 11 9 6
11 12 15 22 17 15 17 22 20 19 16 13 10 10 14 14 14 9 9 11 12 13 14 14 15 15 15 14 13 13 19 18 13 8 4 2 4 7 6 7 6 3 1 3 3 6 8 9 7 10 7 3 1 1 2 3 3 3 3 5 6 7 7 7 8 8 9 10 11 11 10 9 8 5
13 13 13 17 21 23 23 21 21 19 18 13 10 11 12 11 12 7 11 11 10 12 12 11 12 12 11 13 12 13 14 13 12 10 7 7 4 4 4 4 3 3 3 3 3 7 5 5 8 3 0 9 7 4 2 2 2 2 2 4 4 4 6 6 5 7 8 8 9 8 8 8 7 6
12 12 12 12 19 23 23 22 22 21 20 16 12 11 10 9 7 7 10 12 14 12 11 11 12 11 12 13 12 13 12 10 10 10 10 10 8 5 5 5 4 3 2 1 3 9 7 8 8 3 4 3 5 8 3 3 2 2 2 2 3 3 4 4 3 4 6 9 9 8 7 7 5 6
11 11 11 11 16 23 23 23 22 22 20 19 13 14 15 16 15 11 8 8 9 9 9 10 11 11 11 12 12 11 11 10 11 11 10 10 11 10 8 7 4 2 1 0 6 6 9 7 8 7 5 7 6 6 8 3 2 2 2 2 2 2 3 3 4 4 4 4 4 5 6 7 6 6
9 9 10 10 17 21 22 22 22 20 19 16 14 18 17 16 15 12 9 9 10 10 10 11 11 11 10 10 10 10 9 9 9 9 8 8 11 10 9 9 7 5 3 2 1 4 6 7 5 6 6 6 10 6 7 8 5 2 1 1 1 2 2 2 4 4 4 5 5 9 9 8 9 8
9 9 10 11 17 19 20 20 20 21 19 15 17 16 15 14 12 9 9 9 9 9 9 10 10 9 8 8 9 8 6 7 7 7 8 9 10 10 9 10 9 8 8 6 4 3 4 6 5 4 8 13 14 14 10 3 5 5 4 2 2 2 3 3 4 4 3 4 5 4 5 5 3 6
10 12 15 18 18 18 18 18 17 17 18 19 18 18 16 13 9 8 8 7 8 10 9 8 7 7 6 5 5 4 5 6 7 5 7 6 6 5 7 8 8 9 8 6 6 4 4 5 5 6 5 4 6 5 8 9 7 5 4 5 2 2 3 3 4 5 4 4 4 4 5 5 3 2
17 17 16 18 17 16 15 13 12 11 12 16 18 18 15 11 10 9 8 8 9 8 7 7 8 6 5 5 4 5 6 8 7 5 5 6 7 6 6 8 8 8 8 8 7 5 5 6 7 8 7 6 6 6 5 8 5 3 3 3 2 2 2 3 4 5 6 5 4 3 1 2 2 2
11 14 14 12 14 13 17 16 14 14 14 13 12 11 10 9 9 8 9 8 8 7 7 7 6 5 5 5 8 8 7 6 5 4 4 5 5 5 5 6 5 7 7 8 8 8 6 5 4 6 10 7 7 7 6 6 5 4 2 2 3 3 1 3 3 5 5 5 4 3 3 4 4 4
9 9 11 13 11 11 12 12 10 10 10 10 10 10 9 9 9 9 10 10 8 7 6 5 6 6 7 7 5 6 7 6 6 5 4 4 6 5 3 4 5 5 6 8 8 9 9 7 7 7 6 6 9 5 6 6 4 4 3 2 4 3 3 4 4 3 4 6 5 4 4 4 4 3
8 9 11 11 11 11 10 10 10 10 10 9 9 10 10 9 9 9 9 8 8 6 8 8 7 6 6 6 6 6 6 6 6 5 6 5 6 6 7 7 4 5 7 7 7 8 8 10 10 10 9 9 8 9 8 5 5 3 5 3 4 4 2 2 4 6 5 7 5 5 4 4 3 2
11 10 10 10 10 10 10 10 10 9 9 9 10 9 9 9 9 8 8 8 7 6 7 6 7 6 5 6 6 5 5 5 5 6 6 4 5 6 6 7 6 5 6 6 6 6 7 9 9 10 11 9 9 6 6 8 5 3 3 2 4 4 1 2 3 3 4 5 7 6 4 2 2 1
10 9 10 8 9 8 8 9 8 8 9 9 8 8 8 9 9 8 8 8 6 7 7 7 6 6 6 4 4 6 5 5 6 6 6 5 7 6 5 6 5 5 6 6 5 4 6 7 9 9 8 7 8 8 9 5 7 5 4 4 2 5 3 2 4 5 5 4 5 6 4 2 2 0
10 8 9 9 9 8 9 8 8 8 8 8 8 7 9 8 8 8 8 6 6 7 7 7 7 7 6 5 5 5 5 5 6 6 7 6 6 6 6 5 4 4 5 5 4 2 3 6 8 9 8 5 5 4 3 5 5 3 6 2 1 3 3 3 3 4 6 5 3 5 4 4 3 1
9 8 8 8 7 7 7 7 7 7 7 7 7 7 7 8 7 7 6 4 8 6 5 6 6 6 6 5 6 6 5 6 5 6 6 5 5 5 6 5 5 3 4 3 4 5 4 5 7 9 8 6 6 5 1 3 6 4 3 6 2 3 5 5 5 6 4 3 3 3 3 3 2 2
7 7 7 7 7 6 6 6 6 7 7 7 7 7 7 6 7 7 7 9 8 7 7 7 6 6 5 5 6 6 6 5 5 6 6 5 6 5 5 5 6 5 3 2 4 5 6 5 5 5 5 7 7 6 3 0 1 2 5 3 7 3 3 6 5 5 3 4 4 1 2 4 2 0
7 7 7 7 6 6 6 6 6 6 6 6 7 6 6 7 7 8 8 7 7 7 7 8 7 6 5 5 5 4 6 6 6 6 6 6 5 5 4 4 5 2 2 2 4 6 4 4 3 5 6 5 5 4 4 5 2 1 5 3 7 6 3 6 5 4 5 3 2 2 3 0 1 1
6 6 6 6 6 6 6 5 6 5 6 6 6 5 6 6 6 7 7 8 7 6 7 6 6 6 6 6 5 5 7 5 4 4 4 4 4 5 5 4 5 4 5 4 4 3 4 1 3 4 6 7 6 6 5 4 2 1 2 3 2 5 6 5 5 6 4 4 4 4 2 3 2 4
6 7 6 5 5 5 5 5 5 5 6 5 5 5 6 6 7 6 6 6 6 7 7 7 7 6 6 6 5 5 5 5 4 4 3 4 4 5 4 5 5 5 6 4 3 3 2 3 5 6 2 2 3 3 5 5 5 3 3 0 4 4 4 3 7 7 5 4 5 5 4 3 1 1
5 5 4 4 5 4 5 5 4 5 5 5 5 5 5 6 6 7 7 8 8 7 7 7 7 6 7 6 6 6 6 5 4 4 4 3 4 3 3 4 5 4 5 4 2 2 2 0 1 4 5 5 5 4 4 6 5 3 3 1 1 3 3 5 4 4 8 8 6 4 2 1 1 1
4 4 4 3 3 4 4 5 4 4 4 5 5 4 5 6 7 8 7 7 7 7 7 7 7 6 6 6 5 4 5 5 4 4 4 3 2 2 2 1 1 1 1 1 1 0 2 1 1 5 5 3 1 2 6 5 4 4 2 1 1 3 2 5 5 5 4 3 2 4 5 5 4 2
3 3 2 2 3 3 5 5 5 4 5 3 3 4 6 6 6 6 6 6 6 6 6 6 7 7 7 6 5 5 5 4 3 5 5 3 3 2 0 0 1 1 1 1 2 2 2 2 1 1 5 3 1 3 5 4 3 3 2 1 1 0 0 2 2 4 4 5 8 6 2 5 8 10
2 2 2 1 2 2 2 3 4 4 4 4 5 5 5 6 6 6 6 6 6 6 6 6 6 6 6 6 6 6 5 3 4 3 3 4 3 3 3 2 1 0 0 0 0 1 1 1 1 1 1 1 0 2 5 5 4 4 1 0 0 0 1 1 1 1 1 1 6 8 2 4 7 8
Wind_Direction
232 226 213 213 207 204 193 187 194 197 195 178 162 173 184 186 170 175 189 194 187 190 184 175 187 188 186 176 177 184 192 178 173 179 181 181 182 186 184 176 162 159 170 177 182 171 169 172 160 161 152 148 147 145 144 141 135 142 129 118 117 119 121 127 133 128 117 108 103 100 103 110 112 114
230 212 220 218 211 195 187 188 190 194 186 184 179 179 189 201 190 178 187 201 193 187 188 186 174 183 187 171 172 183 184 173 173 175 177 180 180 176 176 172 169 169 171 180 190 176 177 176 168 160 152 154 148 143 144 143 144 145 140 132 123 122 123 122 119 118 119 121 122 126 125 123 127 135
217 203 213 204 218 196 195 193 187 183 181 190 186 193 183 210 273 199 181 186 211 180 190 191 173 175 179 174 167 170 168 168 172 171 176 183 172 166 172 172 172 169 171 180 185 179 194 167 159 167 155 154 150 149 150 150 152 160 137 129 127 126 128 131 129 132 135 140 140 138 140 140 140 139
203 214 209 198 209 192 192 196 186 173 176 176 182 188 178 175 132 190 199 215 210 205 190 180 170 172 168 169 163 161 155 162 170 169 173 159 149 164 164 173 170 170 171 173 183 180 183 170 163 163 161 154 151 156 158 157 166 146 134 138 135 135 138 140 142 143 146 148 150 150 151 152 150 145
230 220 212 203 192 190 193 192 183 179 179 178 178 179 174 177 182 182 165 180 120 202 179 164 177 173 153 160 167 160 142 146 160 151 153 143 158 165 171 159 172 170 177 179 182 179 170 165 163 161 161 158 158 159 159 160 147 142 145 143 143 145 149 150 149 152 151 156 159 162 164 158 157 157
229 202 232 213 187 182 197 183 180 180 174 172 166 167 169 172 159 156 141 173 161 175 152 159 120 138 164 160 171 156 147 150 152 150 148 163 164 170 168 167 165 175 180 181 178 171 168 168 163 161 162 158 157 157 155 149 147 150 150 151 152 155 157 157 155 152 159 163 167 173 172 165 166 170
226 200 212 209 194 174 186 179 174 166 166 169 170 163 150 156 160 161 177 176 190 166 185 169 148 163 179 171 168 161 151 156 157 148 159 161 163 159 144 159 153 177 179 178 174 170 172 172 165 162 161 158 155 154 151 151 154 155 157 157 159 161 162 163 160 162 170 171 174 179 180 175 180 185
216 223 219 209 189 171 186 186 175 171 166 163 155 152 164 166 166 181 179 183 158 153 150 178 166 185 181 171 147 140 148 146 154 142 135 152 149 137 155 158 162 175 177 175 174 172 171 168 161 160 158 155 153 153 154 157 159 160 160 161 163 165 167 166 165 171 179 182 187 188 188 188 192 198
208 224 222 180 176 147 176 178 182 179 180 178 177 182 176 169 174 175 170 178 176 165 172 160 159 156 113 74 137 144 141 137 121 116 145 164 146 146 147 153 155 155 170 172 172 171 169 163 160 158 155 154 155 157 160 161 163 163 163 164 167 168 167 166 166 175 186 197 196 200 200 196 206 211
215 250 239 211 205 190 181 196 186 180 179 170 183 185 171 176 168 170 180 184 181 175 169 166 136 168 149 145 159 167 153 144 139 144 145 136 142 145 144 140 134 143 153 158 166 163 160 160 158 156 157 157 158 161 162 162 164 165 166 166 166 163 163 167 175 183 189 190 192 213 222 199 212 223
45 350 273 218 205 209 216 213 203 189 182 181 191 182 180 174 165 172 184 184 176 167 158 175 166 148 141 156 156 164 164 163 163 157 149 144 148 159 155 137 121 131 115 96 130 147 152 149 153 159 157 158 159 160 161 160 161 164 163 163 163 166 170 175 177 176 177 184 191 201 204 206 217 224
30 26 12 19 269 217 210 225 206 188 186 185 189 183 177 168 163 176 180 177 175 168 170 176 167 174 159 116 108 141 147 149 159 173 165 166 161 165 164 153 142 132 133 132 102 96 101 104 113 120 135 150 155 156 157 160 157 159 164 166 169 170 171 171 174 178 185 191 197 201 198 192 214 256
49 350 333 154 209 229 231 232 240 189 171 177 181 179 168 164 181 186 185 178 174 177 165 152 134 146 154 169 154 162 168 177 178 169 161 165 152 143 145 128 115 142 144 123 122 128 143 131 130 137 123 129 143 151 151 158 159 160 165 170 169 169 168 171 175 180 184 188 188 185 178 175 178 199
46 46 352 306 248 241 231 207 180 176 181 183 174 159 167 179 182 183 182 180 188 178 174 173 164 167 184 177 177 177 183 164 135 152 164 158 138 114 105 96 79 149 140 133 137 132 149 140 133 137 134 143 146 147 149 163 164 168 166 164 160 157 156 156 158 155 160 169 162 155 157 158 156 148
22 22 14 354 310 292 297 345 117 164 206 201 143 139 170 189 179 174 172 188 184 188 194 176 172 184 181 187 183 178 153 168 165 171 167 149 140 160 158 178 43 223 152 148 134 135 152 148 145 146 140 147 142 154 167 167 162 154 147 141 135 131 127 124 121 119 119 120 124 122 125 129 129 132
14 16 21 12 354 336 328 20 75 108 206 262 130 96 91 82 60 98 184 179 179 192 196 184 194 187 188 184 165 155 173 173 164 165 159 158 166 163 179 177 184 202 162 146 142 112 44 146 117 99 99 119 129 118 139 144 136 135 134 132 130 128 124 119 117 117 112 107 103 104 109 110 110 109
18 12 22 26 20 3 7 32 59 95 71 68 78 71 62 46 39 29 16 347 200 183 185 203 202 196 174 175 193 180 170 154 162 150 162 173 176 178 180 184 153 170 162 134 135 124 83 79 120 108 56 52 56 88 112 126 130 131 132 131 127 123 122 120 117 114 108 104 106 107 106 108 107 105
27 23 24 31 28 18 15 12 60 78 80 72 66 58 50 41 29 26 19 6 98 145 169 154 170 236 144 185 192 165 146 155 176 168 180 172 172 182 191 155 140 154 167 159 136 101 94 106 116 104 86 92 87 93 121 130 131 130 124 121 119 120 119 118 117 112 109 108 106 104 101 98 96 97
31 23 22 33 34 30 21 20 39 64 72 78 74 66 54 54 45 39 25 8 8 26 60 89 97 59 34 82 107 154 172 192 191 184 181 179 174 125 87 69 94 133 127 129 125 128 135 143 95 94 110 99 89 87 98 110 116 117 121 123 124 118 114 113 109 110 109 104 95 90 92 90 89 88
37 30 26 25 30 20 33 29 44 54 68 69 74 74 70 65 61 54 46 50 55 54 52 48 50 43 53 52 62 84 166 78 22 73 73 86 111 129 112 114 152 140 153 121 104 115 128 122 112 103 93 101 99 84 82 93 107 115 117 118 116 114 116 113 114 113 109 106 103 99 100 98 92 86
40 33 34 39 41 38 38 31 54 59 70 64 61 69 67 63 60 44 29 43 54 61 67 66 59 56 55 52 47 49 53 66 96 86 99 140 142 135 135 100 141 168 158 42 113 106 125 143 127 112 68 75 84 77 70 66 77 90 99 103 107 113 115 118 118 116 115 113 111 109 107 103 99 92
39 37 38 45 52 52 46 40 41 55 66 59 57 62 64 58 53 37 20 34 39 43 54 55 54 46 49 53 49 42 43 45 30 169 180 179 150 161 157 151 142 99 78 93 138 99 129 136 131 112 99 78 37 51 49 47 58 71 78 89 106 114 117 120 123 126 124 122 119 116 111 105 98 83
37 34 34 37 46 53 52 51 49 50 64 69 53 63 68 65 59 39 35 42 42 36 36 33 41 35 33 43 49 40 37 38 41 41 51 96 159 162 148 122 109 84 275 199 182 110 151 147 167 139 126 80 34 44 67 68 57 56 68 82 78 89 113 118 126 125 119 115 113 112 110 108 102 94
37 35 34 33 37 50 51 48 49 52 57 71 63 60 66 68 65 46 57 49 56 56 51 44 48 47 42 43 41 43 36 32 33 32 39 42 50 98 108 121 122 139 157 176 140 124 142 158 162 209 75 143 165 181 114 109 82 60 62 70 78 90 90 91 82 80 90 97 103 108 107 102 103 99
43 37 36 36 39 49 50 51 51 52 51 54 61 56 63 60 73 64 63 53 53 57 55 51 48 45 44 44 42 39 36 30 33 36 33 47 41 59 105 114 94 85 345 325 153 136 147 169 165 148 96 60 111 132 140 106 98 83 69 84 105 70 81 67 84 79 81 82 87 93 90 89 94 116
42 40 38 35 40 50 52 51 51 51 54 53 58 53 55 51 50 54 58 61 60 57 51 49 48 46 44 46 42 41 38 25 29 35 33 37 57 54 43 45 46 41 51 223 145 134 123 161 173 149 136 121 115 124 132 133 137 118 99 76 80 105 95 112 98 91 90 96 82 95 105 100 91 92
45 39 42 34 40 52 52 54 51 49 49 52 52 53 52 51 50 54 55 55 59 57 54 52 52 43 42 46 43 42 39 31 32 38 37 41 52 54 48 46 49 55 354 4 100 135 140 137 148 148 133 120 123 128 128 143 161 109 123 141 93 82 73 101 115 103 94 94 91 92 84 81 89 84
49 47 43 44 44 49 51 52 52 50 49 48 43 42 44 50 53 58 58 56 58 61 56 56 53 49 41 45 46 39 34 35 31 33 32 37 46 54 48 40 38 35 31 29 41 71 108 134 136 141 150 151 151 154 153 97 121 155 169 95 97 109 126 118 102 104 97 106 111 113 107 103 106 100
54 54 52 50 50 49 50 50 50 48 44 43 43 40 38 39 40 43 51 55 60 59 56 57 55 52 44 51 56 46 43 44 33 22 19 26 30 44 67 58 46 32 26 18 33 44 86 91 89 87 86 75 83 89 124 142 153 169 143 139 134 143 139 143 136 131 128 123 135 132 141 142 144 126
51 47 46 46 46 47 45 48 46 47 41 41 41 40 38 40 37 34 40 40 47 52 49 46 47 39 33 31 32 43 42 45 34 24 29 28 22 19 41 53 35 32 27 22 27 34 80 107 112 105 84 64 82 103 101 132 125 92 114 120 119 69 47 92 124 134 139 142 136 125 89 90 114 121
45 45 44 45 45 47 46 48 49 46 38 38 35 34 32 33 32 34 41 44 49 47 45 44 40 35 33 32 36 32 35 35 24 19 40 46 34 36 49 68 48 35 23 28 33 31 41 58 83 113 117 100 66 81 94 93 96 105 75 127 149 140 161 66 73 120 135 122 100 74 64 70 54 45
44 47 43 42 36 37 37 35 34 34 37 40 37 33 30 30 28 30 37 44 44 41 47 52 46 39 39 39 28 33 39 34 23 10 43 53 36 18 37 54 37 45 37 27 33 34 46 49 65 57 55 108 120 105 85 82 101 112 82 67 85 57 60 122 114 106 132 125 100 72 42 49 62 52
53 50 47 41 38 37 39 35 33 27 28 29 31 32 27 25 26 27 29 33 26 17 36 40 43 38 38 33 25 33 37 29 27 13 45 38 58 32 60 67 52 52 62 43 46 48 58 65 59 68 76 64 75 99 99 87 55 61 113 108 95 76 39 42 125 136 132 102 101 98 71 32 32 74
59 46 51 40 39 35 35 37 31 27 27 26 25 23 26 28 29 26 27 25 12 20 39 35 42 33 42 36 26 34 30 11 34 27 43 42 54 61 51 64 51 52 68 70 59 70 78 81 79 70 70 69 63 54 100 117 103 85 81 98 105 101 32 84 80 105 119 129 135 114 89 43 6 359
53 48 51 41 39 38 40 41 33 28 32 26 27 23 23 27 23 23 27 9 5 23 26 29 31 27 39 37 30 44 22 25 15 29 20 51 64 65 67 69 58 54 76 79 77 75 98 96 97 89 74 65 55 40 42 62 119 97 75 49 62 114 91 44 106 96 104 89 100 114 102 80 79 329
50 47 50 44 38 34 39 31 32 32 34 30 32 25 30 23 19 21 16 349 18 25 26 22 24 21 14 15 24 39 34 48 41 32 34 35 63 68 58 53 54 44 51 67 70 62 92 106 101 97 96 82 90 67 353 16 74 155 122 111 41 81 77 85 70 85 91 83 84 120 131 159 175 209
56 46 49 48 39 38 40 29 32 30 29 29 28 31 32 23 5 12 355 2 35 28 23 26 28 12 15 22 42 41 40 57 49 39 45 36 56 67 72 41 38 36 64 26 18 14 24 75 96 110 108 101 107 121 118 315 4 35 126 126 88 109 121 99 90 64 27 74 75 84 149 150 174 208
63 54 53 48 44 39 40 33 33 33 27 25 27 25 25 21 15 10 7 29 16 18 14 23 14 16 15 21 57 62 54 53 65 54 41 44 62 52 69 68 35 15 14 22 43 26 27 47 72 88 105 131 137 143 143 331 5 354 1 145 131 166 107 102 95 99 56 20 80 354 51 73 48 294
57 58 53 51 40 42 42 33 37 35 27 27 27 22 17 19 18 16 19 18 15 16 15 22 17 5 14 17 29 49 73 71 64 63 61 56 74 80 55 70 75 43 42 5 26 44 53 72 102 120 123 139 152 171 158 146 197 236 0 55 132 124 149 128 125 126 126 106 54 34 41 223 178 16
51 59 53 52 44 42 44 34 37 33 35 27 28 21 27 22 21 21 16 12 11 11 25 20 12 19 26 20 26 47 53 51 55 53 72 82 78 92 92 85 86 78 73 48 37 30 83 174 232 185 174 180 170 166 166 153 128 57 60 51 40 151 161 133 134 141 133 151 134 98 70 11 54 342
53 53 36 49 52 45 51 44 36 37 36 25 29 27 30 27 31 19 15 13 15 18 18 14 16 24 21 20 25 52 66 48 57 45 49 65 65 77 96 94 77 94 90 67 86 80 86 233 245 230 149 128 123 126 91 97 112 132 117 229 9 64 142 158 151 152 157 173 136 127 129 136 149 9
75 70 52 49 63 49 57 56 43 49 40 33 36 31 32 33 29 21 24 15 18 16 23 18 11 16 19 18 25 39 59 52 49 47 39 62 78 49 48 82 84 77 91 95 76 6 316 329 230 146 125 133 159 131 148 153 156 177 206 293 305 338 49 92 130 145 152 147 128 108 83 31 44 50
76 79 66 55 68 65 63 68 59 58 50 45 43 35 43 37 31 26 19 17 10 17 13 4 10 14 11 10 22 47 65 45 38 46 48 42 71 107 85 55 119 107 106 128 182 351 317 12 86 116 120 103 59 103 158 186 171 159 172 188 191 324 353 51 82 111 144 153 117 154 173 162 134 185
88 85 71 51 65 60 59 66 67 60 58 55 55 52 49 49 40 26 25 20 18 10 357 10 6 13 5 358 356 32 48 49 56 61 56 50 59 76 90 356 73 88 57 34 343 346 0 68 40 90 150 171 120 113 160 151 188 196 187 231 310 67 30 332 6 46 53 39 24 23 50 189 182 172
77 97 97 53 58 60 56 54 69 68 61 52 51 53 50 50 42 31 25 20 15 6 10 7 6 4 5 4 9 15 357 5 35 50 64 64 64 65 66 60 45 54 73 271 114 328 17 86 54 50 74 52 40 156 175 169 177 157 200 331 148 46 1 5 83 48 3 355 6 4 32 85 104 101